User: anonymous   Login
Location: Bluff Heights
(33.7692°N, 118.1592°W)
Time: 16:35:49
(UTC+00:00)
Language:

COSMO-SKYMED 1 - Orbit

View from above orbital plane
View from above orbital plane
View from above satellite
View from above satellite

Ground track
Ground track

The orbit data is extracted from the following two-line orbital elements,

1 31598U 07023A   21019.51148903 -.00000269  00000-0 -27202-4 0  9998
2 31598  97.8832 205.5322 0001443  90.3376 269.7994 14.82155450736832
Epoch (UTC): 19 January 2021 12:16:32
Eccentricity: 0.0001443
inclination: 97.8832°
perigee height: 621 km
apogee height: 623 km
right ascension of ascending node: 205.5322°
argument of perigee: 90.3376°
revolutions per day: 14.82155450
mean anomaly at epoch: 269.7994°
orbit number at epoch: 73683

The dashed part of the orbit path shows where the satellite is in the earth's shadow,  

DLR